User: anonymous   Login
Location: Tambov
(52.7163°N, 41.4075°E)
Time: 05:35:14
(UTC+03:00)
Language:

Envisat - Orbit

View from above orbital plane
View from above orbital plane
View from above satellite
View from above satellite

Ground track
Ground track

The orbit data is extracted from the following two-line orbital elements,

1 27386U 02009A   21108.61800301  .00000028  00000-0  22637-4 0  9992
2 27386  98.1481 105.7350 0001373  87.2317  24.4395 14.38021333  2403
Epoch (UTC): 18 April 2021 14:49:55
Eccentricity: 0.0001373
inclination: 98.1481°
perigee height: 764 km
apogee height: 766 km
right ascension of ascending node: 105.7350°
argument of perigee: 87.2317°
revolutions per day: 14.38021333
mean anomaly at epoch: 24.4395°
orbit number at epoch: 240

The dashed part of the orbit path shows where the satellite is in the earth's shadow,  

DLR